Other Public Products
Issued by NWS Grand Forks, ND

Home | Current Version | Previous Version | Text Only | Print | Product List | Glossary Off
Versions: 1 2 3 4 5 6 7 8 9 10 11 12 13 14 15 16 17 18 19 20 21 22 23 24 25 26 27 28 29 30 31 32 33 34 35 36 37 38 39 40 41 42 43 44 45 46 47 48 49 50

000
FPUS83 KFGF 230510
OPUFGF
PRAIRIE TO PINES WEATHER ROUNDUP
NATIONAL WEATHER SERVICE EASTERN NORTH DAKOTA/GRAND FORKS ND
1200 AM CDT WED APR 23 2014

 **SATELLITE DATA USED TO AUGMENT SKY COVER AT AUTOMATED STATIONS**
 *****  WEATHER ACROSS EASTERN NORTH DAKOTA  *****

CITY           SKY/WX    TMP DP  RH WIND       PRES   REMARKS
GRAND FORKS    PTCLDY    48  28  46 E15       29.97F
GRAND FORKS AF MOCLDY    45  31  58 E10       29.97F
GRAND CITY NWS   N/A     46 N/A N/A E12         N/A
BUXTON         NOT AVBL
DEVILS LAKE    PTCLDY    46  32  57 E15       29.91F
FARGO          PTCLDY    50  31  48 E13       29.97S
WAHPETON ARPT  PTCLDY    46  32  57 SE12      29.97F
$$

 *****  WEATHER ACROSS CENTRAL AND WESTERN NORTH DAKOTA  *****

CITY           SKY/WX    TMP DP  RH WIND       PRES   REMARKS
JAMESTOWN      PTCLDY    49  34  56 SE17G25   29.87F
BISMARCK       CLOUDY    57  32  38 E20G28    29.74S
MINOT          PTCLDY    50  33  52 E20G26    29.78F
MINOT AFB      PTCLDY    49  35  58 SE20      29.78F
GARRISON         N/A     51  34  52 E24G31    29.72F
WILLISTON      CLOUDY    58  31  35 E14G26    29.63F
DICKINSON      CLOUDY    53  30  41 E23G31    29.57F
HETTINGER      CLOUDY    55  30  38 E25G36    29.57F
$$

 *****  OTHER OBSERVATIONS NORTHEAST NORTH DAKOTA  *****

CITY           SKY/WX    TMP DP  RH WIND       PRES   REMARKS
WALHALLA       FAIR      41  36  81 SE8       29.99S
LANGDON        FAIR      41  32  70 SE14      29.95F
CAVALIER       FAIR      41  34  75 SE5       29.99S
GRAFTON        FAIR      45  32  61 SE12      29.99R
CANDO          FAIR      45  34  65 E14       29.91F
FORT TOTTEN    NOT AVBL
ROLLA          FAIR      43  34  70 SE13      29.92S
RUGBY          FAIR      45  34  65 E16G22    29.86S
 ***** THE ABOVE OBSERVATIONS ARE NON NWS ARE NOT QUALITY
        CONTROLLED AND MAY MIS-REPORT RAIN FOR SNOW...
$$

 *****  OTHER OBSERVATIONS SOUTHEAST NORTH DAKOTA *****

CITY           SKY/WX    TMP DP  RH WIND       PRES   REMARKS
COOPERSTOWN    FAIR      46  32  57 SE16      29.92F
VALLEY CITY    CLOUDY    48  32  53 SE13G21   29.92F
OAKES          FAIR      50  37  62 E18       29.88F
GWINNER        CLEAR     50  34  53 E16       29.93F
SHEYENNE NWR     N/A     47  33  58 SE8       29.95S
BUFFALO        NOT AVBL
WYNDMERE       NOT AVBL
 ***** THE ABOVE OBSERVATIONS ARE NON NWS ARE NOT QUALITY
       CONTROLLED AND MAY MIS-REPORT RAIN FOR SNOW...
$$

  *****  WEATHER ACROSS NORTHERN MINNESOTA  *****

CITY           SKY/WX    TMP DP  RH WIND       PRES   REMARKS
FLAG ISLAND    CLEAR     30  25  80 CALM      30.06S
WARROAD        CLEAR     36  25  64 E5        30.06S
ROSEAU         PTCLDY    39  25  56 E9        30.05S
HALLOCK        CLOUDY    43  30  61 E13       30.00S
THF RVR FALLS  PTCLDY    41  25  52 E9        30.03R
HALSTAD          N/A     44  28  54 E12         N/A
FOSSTON        PTCLDY    41  25  52 SE9       30.03S
BAUDETTE       CLEAR     36  25  64 E6        30.07S
WASKISH        CLEAR     37  23  56 E6        30.06F
CROOKSTON      PTCLDY    46  27  46 SE13      30.01S
$$
  *****  WEATHER ACROSS CENTRAL AND WEST MINNESOTA  *****

CITY           SKY/WX    TMP DP  RH WIND       PRES   REMARKS
BEMIDJI        CLEAR     32  23  69 E3        30.04S
PARK RAPIDS    FAIR      41  24  51 E5        30.03S
WADENA         PTCLDY    43  25  49 E5        30.03F
DETROIT LAKES  MOCLDY    46  27  46 SE10      30.02F
MOORHEAD       MOCLDY    48  34  57 SE10      29.99S
FERGUS FALLS   PTCLDY    48  28  46 SE10      29.97S
ELBOW LAKE     FAIR      48  34  59 E9        29.99F
MORRIS MN      CLOUDY    50  34  53 SE14      29.98F
STAPLES        PTCLDY    41  25  52 CALM      30.05S
WHEATON        MOCLDY    52  37  58 SE12      29.99F
$$
  *****  WEATHER ELSEWHERE ACROSS MINNESOTA  *****

CITY           SKY/WX    TMP DP  RH WIND       PRES   REMARKS
DULUTH         CLEAR     34  20  56 CALM      30.08S
INTRNTL FALLS  CLEAR     28  22  78 CALM      30.08R
ELY            CLEAR     28  21  74 CALM      30.09S
CLOQUET        CLEAR     30  21  69 CALM      30.09R
BRAINERD       CLEAR     40  26  57 CALM      30.07R
HIBBING        CLEAR     28  22  78 CALM      30.08S
ALEXANDRIA     PTCLDY    46  28  49 SE10      30.03S
SAINT CLOUD    PTCLDY    46  25  43 E6        30.06S
MINNEAPOLIS    PTCLDY    46  25  43 E7        30.08S
$$

  *****  WEATHER ACROSS SOUTH DAKOTA  *****

CITY           SKY/WX    TMP DP  RH WIND       PRES   REMARKS
SIOUX FALLS    CLOUDY    56  34  43 SE15G26   29.93F
BROOKINGS      NOT AVBL
WATERTOWN      CLOUDY    53  34  48 SE13G22   29.92F
HURON          CLOUDY    58  33  39 SE17G25   29.83F
SISSETON         N/A     48  37  65 S9        29.94F
ABERDEEN       CLOUDY    54  36  50 SE14      29.85F
MITCHELL       MOCLDY    58  34  40 SE22      29.86F
PIERRE         NOT AVBL
MOBRIDGE       CLOUDY    57  32  38 E25G41    29.68F
RAPID CITY     CLOUDY    60  44  55 S9        29.58F
$$

  *****  SOME WEATHER IN NEARBY STATES *****

CITY           SKY/WX    TMP DP  RH WIND       PRES   REMARKS
GLASGOW MT     PTCLDY    59  33  37 E25G33    29.43F
GREAT FALLS MT LGT RAIN  43  41  93 NW6       29.54F
CHEYENNE WY    CLOUDY    55  34  45 W5        29.69F
SCOTTSBLUFF NE MOCLDY    61  45  55 E14       29.59F
OMAHA NE       MOCLDY    59  33  37 SE14      29.97F
DES MOINES IA  MOCLDY    56  32  40 E6        30.05R
DAVENPORT IA   CLEAR     42  28  57 N8        30.07R
CHICAGO IL     CLEAR     39  26  59 N3        30.08R
EAU CLAIRE WI  CLEAR     34  25  69 NE3       30.11R
LA CROSSE WI   CLEAR     41  26  55 CALM      30.11R
$$

  *****  SOME NATIONAL WEATHER *****

CITY           SKY/WX    TMP DP  RH WIND       PRES   REMARKS
LA GUARDIA NY  PTCLDY    62  44  51 W12       29.50S
RALEIGH NC     PTCLDY    61  54  77 W7        29.70F
ATLANTA GA     PTCLDY    61  59  93 W7        29.88S
NEW ORLEANS LA CLEAR     69  65  86 N3        29.93S
OKLAHOMA CITY  PTCLDY    58  42  55 SE6       29.95F
ALBUQUERQUE NM MOCLDY    70  29  21 S13       29.87F
SALT LAKE CITY LGT RAIN  40  40 100 N13       29.88S
LOS ANGELES CA CLEAR     60  48  64 W10       29.93R
BOISE ID       CLEAR     41  33  73 W7        29.89R
SEATTLE WA     LGT RAIN  46  43  89 SE12      29.88F
$$

*** WEATHER ACROSS MANITOBA...SASKATCHEWAN AND ONTARIO ***
                ***ONTARIO***

CITY           SKY/WX    TMP DP  RH WIND       PRES   REMARKS
GERALDTON      CLEAR     25  21  86 CALM      30.07R
THUNDER BAY    CLEAR     27  25  93 W2        30.12R
SIOUX LOOKOUT  CLEAR     27  21  80 S3        30.08R
TORONTO        CLOUDY    41  34  75 NW17G26   29.72R
BIG TROUT LK   CLEAR     27  19  74 NE2       30.06S
PICKLE LAKE    NOT AVBL
DRYDEN         CLEAR     41  19  42 S6        30.08R
KENORA         CLEAR     41  19  42 S2        30.09R
$$
                *** MANITOBA***

CITY           SKY/WX    TMP DP  RH WIND       PRES   REMARKS
BRANDON        MOCLDY    46  36  66 SE9       29.94F
DAUPHIN        CLEAR     43  37  81 SE13      29.94S
ISLAND LAKE    MOCLDY    36  34  93 S2        30.05R
PILOT MOUND      N/A     43  34  70 E13         N/A
THE PAS        CLEAR     39  28  65 SE7         N/A
THOMPSON       CLEAR     36  30  80 NE8       30.06R
WINNIPEG       PTCLDY    43  32  65 SE10      30.03R
LYNN LAKE      CLEAR     32  25  74 NE8       30.10R WCI  25
CHURCHILL      CLOUDY    25  23  93 N10       30.19R WCI  15
GILLAM         MOCLDY    34  21  60 NE7       30.09R
$$
                ***SASKATCHEWAN***

CITY           SKY/WX    TMP DP  RH WIND       PRES   REMARKS
ESTEVAN        CLOUDY    50  36  57 E22G29    29.73F
KINDERSLEY     CLOUDY    54  37  54 E26G35    29.46F
LLOYDMINSTER   PTCLDY    52  39  62 E24G36    29.56F
PRINCE ALBERT  MOCLDY    45  34  65 E13       29.80S
REGINA         PTCLDY    50  34  53 E26G35    29.69F



USA.gov is the U.S. government's official web portal to all federal, state and local government web resources and services.